Location: Innsbruck
(47.2657°N, 11.3914°E)
Time: 13:38:13
(UTC+02:00)

Envisat - Pass Details

Date: 27 September 2021
Orbit: 764 x 766 km, 98.2° (Epoch: 20 October)

Event Time Altitude Azimuth Distance (km) Brightness Sun altitude
Rises 06:21:28 0° 15° (NNE) 3,243 6.6 -8.7°
Reaches altitude 10° 06:23:48 10° 18° (NNE) 2,312 5.8 -8.3°
Maximum altitude 06:28:53 71° 102° (ESE) 811 3.4 -7.5°
Drops below altitude 10° 06:33:56 10° 187° (S) 2,294 5.4 -6.6°
Sets 06:36:15 0° 189° (S) 3,216 6.1 -6.2°
